Location: Unspecified
(0.0000°N, 0.0000°E)
Time: 04:55:23
(UTC+00:00)

Kitsat-3 - Pass Details

Date: 22 May 2026
Orbit: 698 x 715 km, 98.6° (Epoch: 11 June)

Event Time Altitude Azimuth Distance (km) Brightness Sun altitude
Exits shadow 20:23:45 29° 274° (W) 1,258 9.3 -34.1°
Drops below altitude 10° 20:27:12 10° 319° (NW) 2,153 10.8 -34.9°
Sets 20:29:40 0° 329° (NNW) 3,069 11.6 -35.4°
